TimeCST,TemperatureF,Dew PointF,Humidity,Sea Level PressureIn,VisibilityMPH,Wind Direction,Wind SpeedMPH,Gust SpeedMPH,PrecipitationIn,Events,Conditions,WindDirDegrees,DateUTC
1:48 AM,55.4,32.0,41,30.12,8.0,Calm,Calm,-,N/A,,Mostly Cloudy,0,2013-03-10 07:48:00
4:49 AM,55.4,26.6,33,30.09,8.0,Calm,Calm,-,N/A,,Scattered Clouds,0,2013-03-10 10:49:00
5:41 AM,53.6,28.4,38,29.70,8.0,Calm,Calm,-,N/A,,Clear,0,2013-03-10 11:41:00
6:43 AM,53.6,30.2,41,30.12,8.0,Calm,Calm,-,N/A,,Scattered Clouds,0,2013-03-10 12:43:00
7:42 AM,55.4,32.0,41,30.15,10.0,Calm,Calm,-,N/A,,Mostly Cloudy,0,2013-03-10 13:42:00
8:51 AM,68.0,35.6,30,29.80,10.0,Calm,Calm,-,N/A,,Mostly Cloudy,0,2013-03-10 14:51:00
9:44 AM,69.8,37.4,31,30.18,10.0,WSW,6.9,-,N/A,,Mostly Cloudy,240,2013-03-10 15:44:00
10:50 AM,75.2,37.4,25,30.18,10.0,West,15.0,-,N/A,,Mostly Cloudy,260,2013-03-10 16:50:00
11:53 AM,78.8,33.8,20,29.75,10.0,SW,18.4,-,N/A,,Mostly Cloudy,230,2013-03-10 17:53:00
12:51 PM,80.6,33.8,18,30.12,10.0,West,11.5,23.0,N/A,,Mostly Cloudy,280,2013-03-10 18:51:00
1:42 PM,82.4,28.4,14,30.09,10.0,SSW,11.5,23.0,N/A,,Mostly Cloudy,210,2013-03-10 19:42:00
2:40 PM,80.6,21.2,11,29.67,10.0,SW,11.5,23.0,N/A,,Mostly Cloudy,230,2013-03-10 20:40:00
3:43 PM,78.8,14.0,9,30.06,10.0,SSW,11.5,23.0,N/A,,Mostly Cloudy,210,2013-03-10 21:43:00
4:41 PM,77.0,41.0,28,30.06,10.0,SW,17.3,-,N/A,,Mostly Cloudy,230,2013-03-10 22:41:00
5:40 PM,78.8,26.6,15,29.66,10.0,SW,17.3,-,N/A,,Mostly Cloudy,220,2013-03-10 23:40:00
6:42 PM,73.4,21.2,14,30.03,10.0,SW,11.5,-,N/A,,Mostly Cloudy,230,2013-03-11 00:42:00
7:49 PM,66.2,14.0,13,30.06,10.0,WSW,8.1,-,N/A,,Mostly Cloudy,250,2013-03-11 01:49:00
8:42 PM,64.4,17.6,16,29.71,8.0,WSW,6.9,-,N/A,,Mostly Cloudy,240,2013-03-11 02:42:00
9:45 PM,62.6,19.4,19,30.11,8.0,SW,6.9,-,N/A,,Mostly Cloudy,220,2013-03-11 03:45:00
10:40 PM,59.0,19.4,22,30.12,8.0,Calm,Calm,-,N/A,,Scattered Clouds,0,2013-03-11 04:40:00
11:49 PM,57.2,21.2,25,29.78,8.0,NE,6.9,-,N/A,,Scattered Clouds,40,2013-03-11 05:49:00